User: anonymous
Location: Mount Graham
(32.7016°N, 109.8912°W)
Time: 06:43:32
(UTC-07:00)
Language:

Cosmos 1340 - Orbit

View from above orbital plane
View from above orbital plane
View from above satellite
View from above satellite

Ground track
Ground track

The orbit data is extracted from the following two-line orbital elements,

1 13067U 82013A   14106.17219132  .00005764  00000-0  33100-3 0  3524
2 13067 081.1940 038.9931 0004625 096.1192 035.6414 15.12369826752279
Epoch (UTC): 16 April 2014 04:07:57
Eccentricity: 0.0004625
inclination: 81.1940°
perigee height: 526 km
apogee height: 532 km
right ascension of ascending node: 38.9931°
argument of perigee: 96.1192°
revolutions per day: 15.12369826
mean anomaly at epoch: 35.6414°
orbit number at epoch: 75227

The dashed part of the orbit path shows where the satellite is in the earth's shadow,  

DLR